sat.trackr.live / text

‹ back to catalog

STARLINK-4018

NORAD 52697 · 2022-053AT

PAYLOAD ACTIVE UNKNOWN

§ Identity

Operator
Country
US
Launch date
2022-05-18
Launch site
AFETR
Launch vehicle
Mass (kg)
RCS (m²)

Purposes: comms

External: N2YO · Heavens-Above · Gunter

§ Orbital elements

Epoch: 2026-05-24T11:53:05.785440Z

Period
95.44 min
Inclination
53.2131°
Eccentricity
0.0001050
Mean motion
15.08834028 rev/d
Perigee alt
539.0 km
Apogee alt
540.5 km
Semi-major
6,917.9 km
B*
1.0203e-5
RAAN
168.8174°
Arg perigee
78.9815°
Mean anomaly
281.1295°
Rev number
22,253

§ Raw data

STARLINK-40181 52697U 22053AT  26144.49520585 -.00000125  00000+0  10203-4 0  99942 52697  53.2131 168.8174 0001050  78.9815 281.1295 15.08834028222536

JSON: /api/v1/satellites/52697 · /tle

For live sub-satellite position, see the globe view (requires WebGL).

§ Visibility from observer

Set your observer location to see the next 7 days of passes ≥ 10°. The values pass through the URL so the page stays shareable.

No JS? Fill the form by hand. The geolocation button needs JavaScript.